Regional Weather Roundup
Issued by NWS

Home | Current Version | Previous Version | Text Only | Print | Product List | Glossary On
Versions: 1 2 3 4 5 6 7 8 9 10 11 12 13 14 15 16 17 18 19 20 21 22 23 24 25 26 27 28 29 30 31 32 33 34 35 36 37 38 39 40 41 42 43 44 45 46 47 48 49 50
000
ASUS43 KMKX 041900
RWRWI

WISCONSIN REGIONAL WEATHER ROUNDUP
NATIONAL WEATHER SERVICE MILWAUKEE/SULLIVAN WI
200 PM CDT FRI SEP 04 2015

NOTE: "FAIR" INDICATES FEW OR NO CLOUDS BELOW 12,000 FEET WITH NO
SIGNIFICANT WEATHER AND/OR OBSTRUCTIONS TO VISIBILITY.

WIZ001-002-006>008-014>016-023>028-042000-
NORTHWEST WISCONSIN

CITY           SKY/WX    TMP DP  RH WIND       PRES   REMARKS
SUPERIOR ARPT  MOSUNNY   66  61  84 E15       29.99F
ASHLAND        SUNNY     78  68  71 N12       30.00F HX  80
HAYWARD        PTSUNNY   81  67  62 S9        30.01F HX  83
SIREN          SUNNY     83  69  61 SE9G17    29.97S HX  87
CUMBERLAND     SUNNY     79  68  69 SE10G17   29.99F HX  81
RICE LAKE      SUNNY     80  69  68 SE10      30.01S HX  83
CHETEK         SUNNY     81  71  71 MISG      30.00F HX  85
LADYSMITH      SUNNY     82  65  57 SE7       30.04S HX  84
EAU CLAIRE     SUNNY     84  70  62 SE10      29.98S HX  88
MENOMONIE      SUNNY     84  70  63 E9        29.98S HX  88
NEW RICHMOND   SUNNY     83  70  62 SE12G17   29.96F HX  87
OSCEOLA        SUNNY     84  71  66 SE9G20    29.97F HX  89
$$

WIZ003>005-009-010-017-018-042000-
NORTH CENTRAL WISCONSIN

CITY           SKY/WX    TMP DP  RH WIND       PRES   REMARKS
MANITOWISH WTR SUNNY     80  65  61 SE7       30.06F HX  81
ARBOR VITAE    SUNNY     82  65  55 E10       30.07S HX  84
WOODRUFF       SUNNY     82  65  55 E10       30.07S HX  84
RHINELANDER    SUNNY     82  63  52 E10       30.07F HX  83
EAGLE RIVER    SUNNY     81  60  48 SE9       30.07F HX  81
LAND O LAKES   SUNNY     81  60  48 E9        30.09F HX  82
PHILLIPS       SUNNY     80  65  59 SE8       30.04F HX  82
TOMAHAWK       MOSUNNY   80  65  59 SE3       30.06F HX  82
MEDFORD        SUNNY     76  66  72 SE7       30.06S
MERRILL        PTSUNNY   79  68  69 SE5       30.06S HX  82
$$

WIZ029-030-035-036-043>047-042000-
CENTRAL WISCONSIN

CITY           SKY/WX    TMP DP  RH WIND       PRES   REMARKS
WAUSAU         MOSUNNY   80  66  62 MISG      30.04S HX  82
MOSINEE        PTSUNNY   75  68  78 S5        30.07S
MARSHFIELD     SUNNY     77  65  66 E9        30.05F
STEVENS POINT  CLOUDY    72  65  79 E6        30.07S
WAUPACA        CLOUDY    73  67  81 CALM      30.06S
WAUTOMA        NOT AVBL
WISC RAPIDS    SUNNY     77  64  64 VRB6      30.06S
CAMP DOUGLAS   NOT AVBL
$$

WIZ011>013-019>022-031-037>040-048>050-042000-
NORTHEAST WISCONSIN

CITY           SKY/WX    TMP DP  RH WIND       PRES   REMARKS
ANTIGO         SUNNY     78  63  59 E6        30.08R HX  80
SHAWANO        NOT AVBL
OCONTO         PTSUNNY   75  67  77 E5        30.04F
STURGEON BAY   SUNNY     73  64  73 N12       30.07S
GREEN BAY      CLOUDY    78  67  68 NE5       30.05R HX  80
MANITOWOC      NOT AVBL
APPLETON       PTSUNNY   73  63  68 VRB3      30.04S
CLINTONVILLE   CLOUDY    77  66  69 S3        30.04S
OSHKOSH        CLOUDY    72  64  76 CALM      30.05S
$$

WIZ032>034-041-042-053>061-042000-
SOUTHWEST WISCONSIN

CITY           SKY/WX    TMP DP  RH WIND       PRES   REMARKS
LA CROSSE      PTSUNNY   85  71  63 SE7       29.97F HX  90
SPARTA         SUNNY     84  68  57 SE8       30.01S HX  87
VIROQUA        MOSUNNY   83  71  66 SE5       30.02S HX  88
BOSCOBEL       MOSUNNY   90  72  55 MISG      29.98F HX  97
PRAIRIE DU CHI MOSUNNY   86  68  54 E6        29.97F HX  89
PLATTEVILLE    MOSUNNY   84  73  68 CALM      30.01S HX  91
$$

WIZ056-057-062-063-064-067-068-042000-
SOUTH CENTRAL WISCONSIN

CITY           SKY/WX    TMP DP  RH WIND       PRES   REMARKS
REEDSBURG      MOSUNNY   81  70  69 SE6       30.02F HX  84
BARABOO/DELLS  SUNNY     80  66  63 NE3       30.03F HX  82
LONE ROCK      NOT AVBL
MINERAL POINT  SUNNY     86  70  58 S3        30.03S HX  90
MADISON        MOSUNNY   81  69  67 NE6       30.01F HX  84
MIDDLETON      SUNNY     83  68  59 NE3       30.02F HX  86
WATERTOWN      SUNNY     78  69  73 CALM      30.03S HX  81
MONROE         MOSUNNY   82  72  69 CALM      30.02F HX  87
JANESVILLE     NOT AVBL
$$

WIZ051-052-058>065-066-070>072-042000-
SOUTHEAST WISCONSIN

CITY           SKY/WX    TMP DP  RH WIND       PRES   REMARKS
MILWAUKEE      MOSUNNY   76  66  71 NE10      30.03S
WAUKESHA       MOSUNNY   79  64  61 E3        30.04F HX  81
MILWAUKEE/TIMM MOSUNNY   75  63  64 CALM      30.04F
RACINE         SUNNY     77  65  66 NE9       30.04F
BURLINGTON     SUNNY     78  66  66 CALM      30.03F HX  80
KENOSHA        MOSUNNY   78  66  66 E8        30.03F HX  80
FOND DU LAC    CLOUDY    74  67  78 NE7       30.05S
SHEBOYGAN      CLOUDY    73  67  81 NW6       30.04F
WEST BEND      CLOUDY    72  64  78 N5        30.04F
JUNEAU         MOSUNNY   76  66  70 CALM      30.05S
$$

LSZ147-162-042000-
LAKE SUPERIOR

STATION/POSITION TIME  TEMP    WIND        PRES    WAVE
                       AIR SEA DIR/SP/G            HT/PER
                 (UTC) (F)     (DEG/KT/KT) (MB)    (FT/S)
W MID LAKE BUOY  1750   60 57   30/  4/  6 1017.8R   1
DEVILS ISLAND    1800   62      70/ 11/ 13 1016.5F
PORT WING        1800   56      30/ 16/ 19 1015.9S
SAXON HARBOR     1840   71        CALM     1015.6F
$$

LMZ867-665-643>646-042000-
LAKE MICHIGAN

STATION/POSITION TIME  TEMP    WIND        PRES    WAVE
                       AIR SEA DIR/SP/G            HT/PER
                 (UTC) (F)     (DEG/KT/KT) (MB)    (FT/S)
CHAMBERS ISLAND  1800   68     350/  9/ 10 1017.9R
S GREEN BAY BUOY 1800   68 67   40/  6/  8 1018.8S
N MID LAKE BUOY  1750   68 67  350/  8/  8 1017.4R   2/ 4
NORTHPORT PIER   1800   69      80/  6/  8 1017.6S
SISTER BAY       1811   81     110/  7/ 10   N/A
ALGOMA LAKESHORE 1814           80/  6/  7   N/A
KEWAUNEE LAKESHO 1800   67      30/  4/  6 1016.6R
SHEBOYGAN LAKESH 1800   66     350/  7/  7 1017.5F
PORT WASHINGTON  1800   64      40/  6/  7 1017.6F
ATWATER BUOY     1800   63 57   CALM  /  2 1018.8F
MILWAUKEE LAKESH 1810   62      50/ 10/ 10   N/A
S MID LAKE BUOY  1750   68 71  310/  6/  8 1016.6F   1
KENOSHA   LAKESH 1800   67     160/  5/  6 1016.9S
$$

TC  - TEMPERATURE IN CELSIUS
VSB - VISIBILITY IN STATUTE MILES
WCI - WIND CHILL INDEX
HX  - HEAT INDEX




USA.gov is the U.S. government's official web portal to all federal, state and local government web resources and services.